Regional Weather Roundup
Issued by NWS

Home | Current Version | Previous Version | Graphics & Text | Print | Product List | Glossary On
Versions: 1 2 3 4 5 6 7 8 9 10 11 12 13 14 15 16 17 18 19 20 21 22 23 24 25 26 27 28 29 30 31 32 33 34 35 36 37 38 39 40 41 42 43 44 45 46 47 48 49 50
000
ASUS43 KTOP 020408
RWRKS

WEATHER ROUNDUP FOR KANSAS
NATIONAL WEATHER SERVICE GOODLAND KS
1000 PM CST SUN MAR 01 2015

NOTE:  "FAIR" INDICATES FEW OR NO CLOUDS BELOW 12,000 FEET WITH NO
SIGNIFICANT WEATHER AND/OR OBSTRUCTIONS TO VISIBILITY.

KSZ001>006-013>018-027>032-041>047-020500-
NORTHWEST KANSAS

CITY           SKY/WX    TMP DP  RH WIND       PRES   REMARKS
GOODLAND       CLOUDY    30  22  72 S6        30.34R
HAYS           PTCLDY    25  12  58 W3        30.41S
HILL CITY      CLOUDY    31  20  63 SW5       30.41R
RUSSELL        CLEAR     25  19  78 SW5       30.41R
$$

KSZ061>065-074>080-084>089-020500-
SOUTHWEST KANSAS

CITY           SKY/WX    TMP DP  RH WIND       PRES   REMARKS
DODGE CITY     PTCLDY    24  17  74 E5        30.39R
ELKHART          N/A     25  19  78 NE2         N/A
GARDEN CITY    PTCLDY    22  18  85 CALM      30.37S
GREAT BEND     PTCLDY    23  18  80 CALM      30.43R
LIBERAL        CLOUDY    28  19  69 N6        30.39S
PRATT          PTCLDY    27  23  86 CALM      30.44R
$$

KSZ066>073-081>083-090>101-020500-
SOUTHEAST KANSAS

CITY           SKY/WX    TMP DP  RH WIND       PRES   REMARKS
CHANUTE        CLEAR     20  17  88 CALM      30.48R
COFFEYVILLE    MOCLDY    25  20  81 N5        30.49R
HUTCHINSON     CLEAR     23  18  81 CALM      30.45R
MEDICINE LODGE   N/A     26  21  81 CALM      30.44R
NEWTON         PTCLDY    23  16  74 CALM      30.46R
PARSONS        PTCLDY    22  19  89 N3        30.49R
WICHITA INTL   FAIR      22  17  81 NW3       30.45R
WICHITA JABRA  FAIR      24  19  81 N3        30.45R
WICHITA MCCONL PTCLDY    24  19  80 CALM      30.46R
WINFIELD       PTCLDY    22  18  85 CALM      30.48R
$$

KSZ007>012-019>026-033>040-048>060-102>105-020500-
NORTHEAST KANSAS

CITY           SKY/WX    TMP DP  RH WIND       PRES   REMARKS
CONCORDIA      PTCLDY    29  21  72 SW8       30.43R
EMPORIA        PTCLDY    26  20  77 CALM      30.46R
LAWRENCE       CLEAR     20  18  92 CALM      30.47R
MANHATTAN      CLEAR     24  20  84 CALM      30.45S
MARYSVILLE     CLOUDY    28  23  80 S5        30.43R
OLATHE IND     CLEAR     25  19  78 CALM      30.47R
OLATHE EXE     CLEAR     24  19  81 CALM      30.45R
SALINA         PTCLDY    25  20  81 S5        30.45S
TOPEKA BILLARD CLEAR     23  19  85 CALM      30.47R
TOPEKA FORBES  CLEAR     23  19  85 S5        30.45R
$$



USA.gov is the U.S. government's official web portal to all federal, state and local government web resources and services.